User: anonymous   Login
Location: Unspecified
(33.2407°S, 0.0000°E)
Time: 16:30:44
(UTC+00:00)
Language:

XW-2B - Orbit

View from above orbital plane
View from above orbital plane
View from above satellite
View from above satellite

Ground track
Ground track

The orbit data is extracted from the following two-line orbital elements,

1 40911U 15049N   19200.45449174  .00000191  00000-0  13467-4 0  9990
2 40911  97.4671 202.3542 0015660  90.6913  75.5849 15.15811111211563
Epoch (UTC): 19 July 2019 10:54:28
Eccentricity: 0.0015660
inclination: 97.4671°
perigee height: 508 km
apogee height: 529 km
right ascension of ascending node: 202.3542°
argument of perigee: 90.6913°
revolutions per day: 15.15811111
mean anomaly at epoch: 75.5849°
orbit number at epoch: 21156

The dashed part of the orbit path shows where the satellite is in the earth's shadow,  

DLR